Time,TemperatureF,DewpointF,PressureIn,WindDirection,WindDirectionDegrees,WindSpeedMPH,WindSpeedGustMPH,Humidity,HourlyPrecipIn,Conditions,Clouds,dailyrainin,SoftwareType,DateUTC
2013-06-13 00:02:00,81.0,69.0,29.92,SW,219,0.0,-999.0,68,-99.99,,,-99.99,,2013-06-13 05:02:00,
2013-06-13 00:11:00,81.0,69.0,29.92,South,185,0.0,-999.0,68,-99.99,,,-99.99,,2013-06-13 05:11:00,
2013-06-13 00:23:00,81.0,69.0,29.92,South,185,0.0,-999.0,68,-99.99,,,-99.99,,2013-06-13 05:23:00,
2013-06-13 00:33:00,81.0,70.0,29.92,SW,229,0.0,-999.0,69,-99.99,,,-99.99,,2013-06-13 05:33:00,
2013-06-13 00:42:00,80.0,69.0,29.93,South,191,0.0,-999.0,69,-99.99,,,-99.99,,2013-06-13 05:42:00,
2013-06-13 00:53:00,80.0,69.0,29.93,SSW,206,0.0,-999.0,70,-99.99,,,-99.99,,2013-06-13 05:53:00,
2013-06-13 01:02:00,80.0,69.0,29.93,SSW,206,0.0,-999.0,70,-99.99,,,-99.99,,2013-06-13 06:02:00,
2013-06-13 01:11:00,79.0,69.0,29.93,SSW,208,0.0,-999.0,72,-99.99,,,-99.99,,2013-06-13 06:11:00,
2013-06-13 01:22:00,79.0,69.0,29.93,SSW,208,0.0,-999.0,72,-99.99,,,-99.99,,2013-06-13 06:22:00,
2013-06-13 01:33:00,79.0,69.0,29.93,WSW,239,0.0,-999.0,72,-99.99,,,-99.99,,2013-06-13 06:33:00,
2013-06-13 01:44:00,79.0,70.0,29.93,WSW,239,0.0,-999.0,73,-99.99,,,-99.99,,2013-06-13 06:44:00,
2013-06-13 01:52:00,78.0,69.0,29.93,SW,236,0.0,-999.0,74,-99.99,,,-99.99,,2013-06-13 06:52:00,
2013-06-13 02:01:00,78.0,69.0,29.93,SSE,152,0.0,-999.0,75,-99.99,,,-99.99,,2013-06-13 07:01:00,
2013-06-13 02:11:00,78.0,69.0,29.93,SW,223,0.0,-999.0,75,-99.99,,,-99.99,,2013-06-13 07:11:00,
2013-06-13 02:22:00,78.0,70.0,29.94,SW,220,0.0,-999.0,76,-99.99,,,-99.99,,2013-06-13 07:22:00,
2013-06-13 02:33:00,78.0,70.0,29.94,SW,220,0.0,-999.0,76,-99.99,,,-99.99,,2013-06-13 07:33:00,
2013-06-13 02:42:00,78.0,70.0,29.94,SSW,193,0.0,-999.0,76,-99.99,,,-99.99,,2013-06-13 07:42:00,
2013-06-13 02:52:00,78.0,70.0,29.94,South,191,0.0,-999.0,76,-99.99,,,-99.99,,2013-06-13 07:52:00,
2013-06-13 03:01:00,78.0,70.0,29.94,SSW,199,0.0,-999.0,76,-99.99,,,-99.99,,2013-06-13 08:01:00,
2013-06-13 03:11:00,78.0,70.0,29.94,SSW,199,0.0,-999.0,76,-99.99,,,-99.99,,2013-06-13 08:11:00,
2013-06-13 03:22:00,77.0,69.0,29.94,SSW,206,0.0,-999.0,77,-99.99,,,-99.99,,2013-06-13 08:22:00,
2013-06-13 03:32:00,77.0,69.0,29.94,SSW,206,0.0,-999.0,77,-99.99,,,-99.99,,2013-06-13 08:32:00,
2013-06-13 03:42:00,77.0,69.0,29.94,SSW,206,0.0,-999.0,77,-99.99,,,-99.99,,2013-06-13 08:42:00,
2013-06-13 03:52:00,77.0,70.0,29.94,SSW,206,0.0,-999.0,78,-99.99,,,-99.99,,2013-06-13 08:52:00,
2013-06-13 04:01:00,76.0,69.0,29.94,SSW,206,0.0,-999.0,78,-99.99,,,-99.99,,2013-06-13 09:01:00,
2013-06-13 04:11:00,76.0,68.0,29.94,SSW,208,0.0,-999.0,77,-99.99,,,-99.99,,2013-06-13 09:11:00,
2013-06-13 04:22:00,76.0,68.0,29.95,SSW,208,0.0,-999.0,77,-99.99,,,-99.99,,2013-06-13 09:22:00,
2013-06-13 04:32:00,76.0,68.0,29.95,SSW,208,0.0,-999.0,77,-99.99,,,-99.99,,2013-06-13 09:32:00,
2013-06-13 04:42:00,76.0,68.0,29.96,SW,227,0.0,-999.0,77,-99.99,,,-99.99,,2013-06-13 09:42:00,
2013-06-13 04:52:00,77.0,68.0,29.96,SW,234,0.0,-999.0,75,-99.99,,,-99.99,,2013-06-13 09:52:00,
2013-06-13 05:01:00,77.0,68.0,29.96,SW,234,0.0,-999.0,75,-99.99,,,-99.99,,2013-06-13 10:01:00,
2013-06-13 05:11:00,77.0,68.0,29.96,NW,305,0.0,-999.0,75,-99.99,,,-99.99,,2013-06-13 10:11:00,
2013-06-13 05:22:00,77.0,68.0,29.97,NW,309,0.0,-999.0,75,-99.99,,,-99.99,,2013-06-13 10:22:00,
2013-06-13 05:33:00,77.0,68.0,29.97,NW,309,0.0,-999.0,75,-99.99,,,-99.99,,2013-06-13 10:33:00,
2013-06-13 05:42:00,77.0,68.0,29.97,NW,309,0.0,-999.0,75,-99.99,,,-99.99,,2013-06-13 10:42:00,
2013-06-13 05:53:00,77.0,68.0,29.97,NW,309,0.0,-999.0,75,-99.99,,,-99.99,,2013-06-13 10:53:00,
2013-06-13 06:02:00,76.0,68.0,29.98,WSW,251,0.0,-999.0,77,-99.99,,,-99.99,,2013-06-13 11:02:00,
2013-06-13 06:11:00,76.0,69.0,29.99,WSW,251,0.0,-999.0,78,-99.99,,,-99.99,,2013-06-13 11:11:00,
2013-06-13 06:23:00,76.0,69.0,29.99,WSW,251,0.0,-999.0,79,-99.99,,,-99.99,,2013-06-13 11:23:00,
2013-06-13 06:32:00,76.0,69.0,29.99,WSW,251,0.0,-999.0,79,-99.99,,,-99.99,,2013-06-13 11:32:00,
2013-06-13 06:42:00,75.0,69.0,29.99,WSW,251,0.0,-999.0,81,-99.99,,,-99.99,,2013-06-13 11:42:00,
2013-06-13 06:52:00,75.0,69.0,29.99,SSW,192,0.0,-999.0,81,-99.99,,,-99.99,,2013-06-13 11:52:00,
2013-06-13 07:01:00,75.0,69.0,29.99,SSW,192,0.0,-999.0,81,-99.99,,,-99.99,,2013-06-13 12:01:00,
2013-06-13 07:11:00,76.0,70.0,30.00,WNW,296,0.0,-999.0,81,-99.99,,,-99.99,,2013-06-13 12:11:00,
2013-06-13 07:22:00,76.0,70.0,30.00,WNW,296,0.0,-999.0,81,-99.99,,,-99.99,,2013-06-13 12:22:00,
2013-06-13 07:34:00,77.0,70.0,30.00,WNW,295,0.0,-999.0,79,-99.99,,,-99.99,,2013-06-13 12:34:00,
2013-06-13 07:42:00,77.0,68.0,30.01,NW,311,0.0,-999.0,75,-99.99,,,-99.99,,2013-06-13 12:42:00,
2013-06-13 07:52:00,77.0,68.0,30.01,North,353,0.0,-999.0,73,-99.99,,,-99.99,,2013-06-13 12:52:00,
2013-06-13 08:01:00,77.0,68.0,30.01,North,360,0.0,-999.0,73,-99.99,,,-99.99,,2013-06-13 13:01:00,
2013-06-13 08:11:00,77.0,68.0,30.01,North,350,0.0,-999.0,73,-99.99,,,-99.99,,2013-06-13 13:11:00,
2013-06-13 08:21:00,78.0,68.0,30.01,North,350,0.0,-999.0,71,-99.99,,,-99.99,,2013-06-13 13:21:00,
2013-06-13 08:32:00,78.0,67.0,30.01,NNW,344,0.0,-999.0,70,-99.99,,,-99.99,,2013-06-13 13:32:00,
2013-06-13 08:43:00,79.0,68.0,30.02,NW,320,0.0,-999.0,69,-99.99,,,-99.99,,2013-06-13 13:43:00,
2013-06-13 08:53:00,79.0,68.0,30.02,East,79,0.0,-999.0,68,-99.99,,,-99.99,,2013-06-13 13:53:00,
2013-06-13 09:02:00,79.0,68.0,30.02,North,1,0.0,-999.0,68,-99.99,,,-99.99,,2013-06-13 14:02:00,
2013-06-13 09:11:00,79.0,68.0,30.02,North,353,0.0,-999.0,68,-99.99,,,-99.99,,2013-06-13 14:11:00,
2013-06-13 09:22:00,80.0,68.0,30.02,NNW,339,0.0,-999.0,67,-99.99,,,-99.99,,2013-06-13 14:22:00,
2013-06-13 09:33:00,80.0,67.0,30.02,NNW,333,0.0,-999.0,65,-99.99,,,-99.99,,2013-06-13 14:33:00,
2013-06-13 09:43:00,80.0,68.0,30.02,NW,311,0.0,-999.0,66,-99.99,,,-99.99,,2013-06-13 14:43:00,
2013-06-13 09:53:00,80.0,67.0,30.02,WNW,291,0.0,-999.0,64,-99.99,,,-99.99,,2013-06-13 14:53:00,
2013-06-13 10:01:00,81.0,67.0,30.03,NW,322,0.0,-999.0,62,-99.99,,,-99.99,,2013-06-13 15:01:00,
2013-06-13 10:12:00,81.0,67.0,30.03,ENE,72,0.0,-999.0,62,-99.99,,,-99.99,,2013-06-13 15:12:00,
2013-06-13 10:22:00,81.0,67.0,30.03,North,8,0.0,-999.0,62,-99.99,,,-99.99,,2013-06-13 15:22:00,
2013-06-13 10:33:00,82.0,67.0,30.03,WNW,287,0.0,-999.0,61,-99.99,,,-99.99,,2013-06-13 15:33:00,
2013-06-13 10:43:00,82.0,67.0,30.02,WNW,291,0.0,-999.0,60,-99.99,,,-99.99,,2013-06-13 15:43:00,
2013-06-13 10:53:00,81.0,67.0,30.02,East,100,0.0,-999.0,62,-99.99,,,-99.99,,2013-06-13 15:53:00,
2013-06-13 11:01:00,82.0,68.0,30.03,ESE,107,0.0,-999.0,62,-99.99,,,-99.99,,2013-06-13 16:01:00,
2013-06-13 11:11:00,83.0,68.0,30.03,NW,320,0.0,-999.0,60,-99.99,,,-99.99,,2013-06-13 16:11:00,
2013-06-13 11:22:00,84.0,68.0,30.03,NNW,328,0.0,-999.0,59,-99.99,,,-99.99,,2013-06-13 16:22:00,
2013-06-13 11:33:00,84.0,68.0,30.03,NE,47,0.0,-999.0,59,-99.99,,,-99.99,,2013-06-13 16:33:00,
2013-06-13 11:43:00,84.0,68.0,30.03,NNW,329,0.0,-999.0,58,-99.99,,,-99.99,,2013-06-13 16:43:00,
2013-06-13 11:53:00,85.0,68.0,30.03,NW,305,0.0,-999.0,57,-99.99,,,-99.99,,2013-06-13 16:53:00,
2013-06-13 12:02:00,85.0,68.0,30.03,North,359,0.0,-999.0,56,-99.99,,,-99.99,,2013-06-13 17:02:00,
2013-06-13 12:11:00,86.0,67.0,30.03,NNW,336,0.0,-999.0,53,-99.99,,,-99.99,,2013-06-13 17:11:00,
2013-06-13 12:24:00,87.0,68.0,30.03,NNW,339,0.0,-999.0,53,-99.99,,,-99.99,,2013-06-13 17:24:00,
2013-06-13 12:32:00,87.0,67.0,30.03,NNW,343,0.0,-999.0,52,-99.99,,,-99.99,,2013-06-13 17:32:00,
2013-06-13 12:43:00,87.0,67.0,30.03,NW,320,0.0,-999.0,52,-99.99,,,-99.99,,2013-06-13 17:43:00,
2013-06-13 12:53:00,87.0,67.0,30.02,NW,312,0.0,-999.0,51,-99.99,,,-99.99,,2013-06-13 17:53:00,
2013-06-13 13:02:00,87.0,68.0,30.02,WNW,299,1.0,-999.0,53,-99.99,,,-99.99,,2013-06-13 18:02:00,
2013-06-13 13:11:00,87.0,68.0,30.02,West,275,0.0,-999.0,54,-99.99,,,-99.99,,2013-06-13 18:11:00,
2013-06-13 13:22:00,88.0,68.0,30.02,ENE,65,0.0,-999.0,51,-99.99,,,-99.99,,2013-06-13 18:22:00,
2013-06-13 13:33:00,88.0,68.0,30.02,WNW,284,1.0,-999.0,52,-99.99,,,-99.99,,2013-06-13 18:33:00,
2013-06-13 13:43:00,88.0,67.0,30.01,WNW,284,1.0,-999.0,50,-99.99,,,-99.99,,2013-06-13 18:43:00,
2013-06-13 13:52:00,89.0,67.0,30.01,West,274,1.0,-999.0,49,-99.99,,,-99.99,,2013-06-13 18:52:00,
2013-06-13 14:01:00,89.0,68.0,30.01,SW,233,1.0,-999.0,51,-99.99,,,-99.99,,2013-06-13 19:01:00,
2013-06-13 14:11:00,90.0,69.0,30.01,NW,316,0.0,-999.0,50,-99.99,,,-99.99,,2013-06-13 19:11:00,
2013-06-13 14:22:00,89.0,68.0,30.00,NNW,328,1.0,-999.0,50,-99.99,,,-99.99,,2013-06-13 19:22:00,
2013-06-13 14:32:00,90.0,68.0,30.00,ENE,73,0.0,-999.0,48,-99.99,,,-99.99,,2013-06-13 19:32:00,
2013-06-13 14:43:00,90.0,69.0,29.99,NNE,28,0.0,-999.0,50,-99.99,,,-99.99,,2013-06-13 19:43:00,
2013-06-13 14:53:00,91.0,70.0,29.99,NW,320,1.0,-999.0,50,-99.99,,,-99.99,,2013-06-13 19:53:00,
2013-06-13 15:01:00,92.0,69.0,29.99,NW,320,0.0,-999.0,48,-99.99,,,-99.99,,2013-06-13 20:01:00,
2013-06-13 15:11:00,92.0,69.0,29.98,ESE,116,0.0,-999.0,47,-99.99,,,-99.99,,2013-06-13 20:11:00,
2013-06-13 15:22:00,91.0,69.0,29.97,ESE,113,0.0,-999.0,49,-99.99,,,-99.99,,2013-06-13 20:22:00,
2013-06-13 15:32:00,92.0,68.0,29.98,ESE,117,0.0,-999.0,46,-99.99,,,-99.99,,2013-06-13 20:32:00,
2013-06-13 15:43:00,93.0,69.0,29.97,SE,138,0.0,-999.0,46,-99.99,,,-99.99,,2013-06-13 20:43:00,
2013-06-13 15:53:00,93.0,69.0,29.96,SSE,160,0.0,-999.0,46,-99.99,,,-99.99,,2013-06-13 20:53:00,
2013-06-13 16:02:00,93.0,69.0,29.96,North,360,0.0,-999.0,46,-99.99,,,-99.99,,2013-06-13 21:02:00,
2013-06-13 16:11:00,94.0,68.0,29.96,WNW,291,0.0,-999.0,43,-99.99,,,-99.99,,2013-06-13 21:11:00,
2013-06-13 16:22:00,94.0,68.0,29.96,ESE,112,0.0,-999.0,43,-99.99,,,-99.99,,2013-06-13 21:22:00,
2013-06-13 16:34:00,93.0,68.0,29.96,ESE,116,0.0,-999.0,45,-99.99,,,-99.99,,2013-06-13 21:34:00,
2013-06-13 16:43:00,94.0,69.0,29.95,WSW,258,0.0,-999.0,44,-99.99,,,-99.99,,2013-06-13 21:43:00,
2013-06-13 16:52:00,94.0,69.0,29.94,SSW,210,0.0,-999.0,45,-99.99,,,-99.99,,2013-06-13 21:52:00,
2013-06-13 17:01:00,95.0,70.0,29.95,SSW,208,0.0,-999.0,45,-99.99,,,-99.99,,2013-06-13 22:01:00,
2013-06-13 17:11:00,95.0,70.0,29.94,SSE,164,0.0,-999.0,44,-99.99,,,-99.99,,2013-06-13 22:11:00,
2013-06-13 17:22:00,94.0,70.0,29.94,ESE,114,0.0,-999.0,46,-99.99,,,-99.99,,2013-06-13 22:22:00,
2013-06-13 17:32:00,93.0,70.0,29.94,ESE,114,0.0,-999.0,47,-99.99,,,-99.99,,2013-06-13 22:32:00,
2013-06-13 17:42:00,94.0,69.0,29.93,ESE,119,0.0,-999.0,45,-99.99,,,-99.99,,2013-06-13 22:42:00,
2013-06-13 17:52:00,94.0,70.0,29.93,ESE,119,0.0,-999.0,46,-99.99,,,-99.99,,2013-06-13 22:52:00,
2013-06-13 18:01:00,93.0,70.0,29.93,ENE,58,0.0,-999.0,48,-99.99,,,-99.99,,2013-06-13 23:01:00,
2013-06-13 18:11:00,93.0,69.0,29.93,ENE,58,0.0,-999.0,46,-99.99,,,-99.99,,2013-06-13 23:11:00,
2013-06-13 18:22:00,94.0,69.0,29.92,ENE,58,0.0,-999.0,45,-99.99,,,-99.99,,2013-06-13 23:22:00,
2013-06-13 18:32:00,94.0,71.0,29.92,ENE,69,0.0,-999.0,47,-99.99,,,-99.99,,2013-06-13 23:32:00,
2013-06-13 18:43:00,94.0,71.0,29.92,ENE,78,0.0,-999.0,47,-99.99,,,-99.99,,2013-06-13 23:43:00,
2013-06-13 18:52:00,93.0,72.0,29.92,East,85,0.0,-999.0,51,-99.99,,,-99.99,,2013-06-13 23:52:00,
2013-06-13 19:01:00,92.0,71.0,29.92,ESE,113,0.0,-999.0,51,-99.99,,,-99.99,,2013-06-14 00:01:00,
2013-06-13 19:11:00,91.0,71.0,29.92,East,90,0.0,-999.0,53,-99.99,,,-99.99,,2013-06-14 00:11:00,
2013-06-13 19:22:00,91.0,71.0,29.92,ENE,75,0.0,-999.0,53,-99.99,,,-99.99,,2013-06-14 00:22:00,
2013-06-13 19:33:00,90.0,71.0,29.92,NE,55,0.0,-999.0,53,-99.99,,,-99.99,,2013-06-14 00:33:00,
2013-06-13 19:43:00,90.0,71.0,29.92,ESE,109,0.0,-999.0,54,-99.99,,,-99.99,,2013-06-14 00:43:00,
2013-06-13 19:53:00,90.0,71.0,29.92,ESE,112,0.0,-999.0,54,-99.99,,,-99.99,,2013-06-14 00:53:00,
2013-06-13 20:01:00,89.0,71.0,29.92,ENE,68,0.0,-999.0,55,-99.99,,,-99.99,,2013-06-14 01:01:00,
2013-06-13 20:11:00,88.0,70.0,29.93,ENE,76,0.0,-999.0,56,-99.99,,,-99.99,,2013-06-14 01:11:00,
2013-06-13 20:22:00,88.0,70.0,29.93,ENE,64,0.0,-999.0,56,-99.99,,,-99.99,,2013-06-14 01:22:00,
2013-06-13 20:32:00,88.0,70.0,29.93,ENE,75,0.0,-999.0,56,-99.99,,,-99.99,,2013-06-14 01:32:00,
2013-06-13 20:43:00,87.0,70.0,29.93,ENE,71,0.0,-999.0,58,-99.99,,,-99.99,,2013-06-14 01:43:00,
2013-06-13 20:52:00,86.0,69.0,29.93,NE,55,0.0,-999.0,58,-99.99,,,-99.99,,2013-06-14 01:52:00,
2013-06-13 21:02:00,85.0,69.0,29.93,ENE,59,0.0,-999.0,58,-99.99,,,-99.99,,2013-06-14 02:02:00,
2013-06-13 21:11:00,85.0,68.0,29.93,ENE,76,0.0,-999.0,57,-99.99,,,-99.99,,2013-06-14 02:11:00,
2013-06-13 21:22:00,84.0,67.0,29.94,ENE,75,0.0,-999.0,56,-99.99,,,-99.99,,2013-06-14 02:22:00,
2013-06-13 21:32:00,84.0,66.0,29.94,ENE,66,0.0,-999.0,55,-99.99,,,-99.99,,2013-06-14 02:32:00,
2013-06-13 21:43:00,83.0,65.0,29.94,ESE,109,0.0,-999.0,55,-99.99,,,-99.99,,2013-06-14 02:43:00,
2013-06-13 21:52:00,83.0,65.0,29.94,NE,41,0.0,-999.0,55,-99.99,,,-99.99,,2013-06-14 02:52:00,
2013-06-13 22:02:00,83.0,65.0,29.94,East,85,0.0,-999.0,55,-99.99,,,-99.99,,2013-06-14 03:02:00,
2013-06-13 22:11:00,83.0,66.0,29.94,ENE,75,0.0,-999.0,56,-99.99,,,-99.99,,2013-06-14 03:11:00,
2013-06-13 22:22:00,82.0,65.0,29.95,NE,37,0.0,-999.0,57,-99.99,,,-99.99,,2013-06-14 03:22:00,
2013-06-13 22:34:00,82.0,65.0,29.95,ENE,64,0.0,-999.0,57,-99.99,,,-99.99,,2013-06-14 03:34:00,
2013-06-13 22:43:00,82.0,65.0,29.95,NNW,328,0.0,-999.0,57,-99.99,,,-99.99,,2013-06-14 03:43:00,
2013-06-13 22:52:00,82.0,66.0,29.96,NNE,25,0.0,-999.0,58,-99.99,,,-99.99,,2013-06-14 03:52:00,
2013-06-13 23:01:00,81.0,65.0,29.96,East,83,0.0,-999.0,58,-99.99,,,-99.99,,2013-06-14 04:01:00,
2013-06-13 23:12:00,81.0,65.0,29.96,ENE,76,0.0,-999.0,59,-99.99,,,-99.99,,2013-06-14 04:12:00,
2013-06-13 23:22:00,81.0,66.0,29.96,East,100,0.0,-999.0,60,-99.99,,,-99.99,,2013-06-14 04:22:00,
2013-06-13 23:33:00,81.0,66.0,29.96,East,88,0.0,-999.0,60,-99.99,,,-99.99,,2013-06-14 04:33:00,
2013-06-13 23:43:00,81.0,66.0,29.96,ENE,78,0.0,-999.0,61,-99.99,,,-99.99,,2013-06-14 04:43:00,
2013-06-13 23:53:00,81.0,67.0,29.96,East,85,0.0,-999.0,62,-99.99,,,-99.99,,2013-06-14 04:53:00,